• In India
  • List of Countries
  • For 7 days
  • Water Temperature
  • Satellite Maps
  • Weather Map
  • Weather Widgets
  • user-avatar
    Login

    Hourly Weather Nowogardek

    Today, 23 October, Tuesday

    Time Temperature Precipitation Wind Pressure Humidity
    00:00 +6°C° 0 mm 8 mps 766 mmHg 78%
    01:00 +6°C° 0 mm 8 mps 765 mmHg 78%
    02:00 +6°C° 0.4 mm 9 mps 763 mmHg 78%
    03:00 +5°C° 0.4 mm 10 mps 762 mmHg 79%
    04:00 +4°C° 0.4 mm 11 mps 761 mmHg 79%
    05:00 +5°C° 1.3 mm 12 mps 759 mmHg 80%
    06:00 +5°C° 1.3 mm 13 mps 758 mmHg 82%
    07:00 +5°C° 1.3 mm 14 mps 756 mmHg 83%
    08:00 +6°C° 2 mm 14 mps 755 mmHg 84%
    09:00 +8°C° 2 mm 14 mps 754 mmHg 86%
    10:00 +8°C° 2 mm 14 mps 753 mmHg 87%
    11:00 +9°C° 1.5 mm 14 mps 752 mmHg 85%
    12:00 +9°C° 1.5 mm 14 mps 751 mmHg 83%
    13:00 +10°C° 1.5 mm 14 mps 751 mmHg 81%
    14:00 +10°C° 0.6 mm 14 mps 750 mmHg 79%
    15:00 +10°C° 0.6 mm 14 mps 750 mmHg 77%
    16:00 +10°C° 0.6 mm 14 mps 750 mmHg 75%
    17:00 +10°C° 0.4 mm 14 mps 750 mmHg 75%
    18:00 +10°C° 0.4 mm 14 mps 749 mmHg 75%
    19:00 +10°C° 0.4 mm 13 mps 749 mmHg 75%
    20:00 +9°C° 0.3 mm 13 mps 749 mmHg 74%
    21:00 +9°C° 0.3 mm 13 mps 748 mmHg 72%
    22:00 +9°C° 0.3 mm 13 mps 748 mmHg 71%
    23:00 +8°C° 0.3 mm 14 mps 748 mmHg 69%

    Tomorrow, 24 October, Wednesday

    Time Temperature Precipitation Wind Pressure Humidity
    00:00 +8°C° 0.3 mm 14 mps 748 mmHg 67%
    01:00 +6°C° 0.3 mm 14 mps 748 mmHg 65%
    02:00 +6°C° 0.1 mm 14 mps 749 mmHg 62%
    03:00 +7°C° 0.1 mm 13 mps 750 mmHg 59%
    04:00 +5°C° 0.1 mm 12 mps 751 mmHg 55%
    05:00 +5°C° 0.1 mm 12 mps 751 mmHg 55%
    06:00 +5°C° 0.1 mm 12 mps 752 mmHg 55%
    07:00 +5°C° 0.1 mm 12 mps 752 mmHg 54%
    08:00 +5°C° 0 mm 12 mps 753 mmHg 51%
    09:00 +5°C° 0 mm 12 mps 754 mmHg 49%
    10:00 +7°C° 0 mm 12 mps 755 mmHg 46%
    11:00 +7°C° 0 mm 12 mps 756 mmHg 45%
    12:00 +7°C° 0 mm 12 mps 756 mmHg 44%
    13:00 +8°C° 0 mm 12 mps 757 mmHg 44%
    14:00 +7°C° 0 mm 11 mps 757 mmHg 47%
    15:00 +7°C° 0 mm 11 mps 758 mmHg 49%
    16:00 +7°C° 0 mm 10 mps 758 mmHg 52%
    17:00 +7°C° 0 mm 9 mps 758 mmHg 54%
    18:00 +6°C° 0 mm 9 mps 759 mmHg 56%
    19:00 +6°C° 0 mm 8 mps 759 mmHg 58%
    20:00 +6°C° 0 mm 8 mps 759 mmHg 61%
    21:00 +5°C° 0 mm 7 mps 759 mmHg 64%
    22:00 +5°C° 0 mm 6 mps 759 mmHg 68%
    23:00 +5°C° 0 mm 7 mps 758 mmHg 71%

    Day after tomorrow, 25 October, Thursday

    Time Temperature Precipitation Wind Pressure Humidity
    00:00 +5°C° 0 mm 7 mps 758 mmHg 73%
    01:00 +6°C° 0 mm 7 mps 757 mmHg 76%
    02:00 +6°C° 0.9 mm 8 mps 756 mmHg 81%
    03:00 +6°C° 0.9 mm 9 mps 755 mmHg 85%
    04:00 +7°C° 0.9 mm 9 mps 754 mmHg 90%
    05:00 +8°C° 0.6 mm 11 mps 753 mmHg 87%
    06:00 +9°C° 0.6 mm 12 mps 752 mmHg 85%
    07:00 +10°C° 0.6 mm 13 mps 752 mmHg 82%
    08:00 +10°C° 0.2 mm 12 mps 752 mmHg 79%
    09:00 +9°C° 0.2 mm 12 mps 752 mmHg 77%
    10:00 +9°C° 0.2 mm 12 mps 752 mmHg 74%
    11:00 +9°C° 0.1 mm 12 mps 752 mmHg 73%
    12:00 +9°C° 0.1 mm 12 mps 752 mmHg 72%
    13:00 +9°C° 0.1 mm 11 mps 753 mmHg 71%
    14:00 +9°C° 0.1 mm 11 mps 753 mmHg 71%
    15:00 +9°C° 0.1 mm 11 mps 753 mmHg 71%
    16:00 +8°C° 0.1 mm 10 mps 753 mmHg 71%
    17:00 +8°C° 0 mm 10 mps 754 mmHg 73%
    18:00 +8°C° 0 mm 9 mps 754 mmHg 74%
    19:00 +8°C° 0 mm 9 mps 754 mmHg 76%
    20:00 +7°C° 0 mm 8 mps 755 mmHg 77%
    21:00 +7°C° 0 mm 8 mps 755 mmHg 77%
    22:00 +8°C° 0 mm 7 mps 755 mmHg 78%
    23:00 +8°C° 0.1 mm 7 mps 755 mmHg 78%

    26 October, Friday

    Time Temperature Precipitation Wind Pressure Humidity
    00:00 +8°C° 0.1 mm 7 mps 755 mmHg 78%
    01:00 +8°C° 0.1 mm 7 mps 755 mmHg 78%
    02:00 +8°C° 0.1 mm 7 mps 755 mmHg 78%
    03:00 +8°C° 0.1 mm 6 mps 754 mmHg 79%
    04:00 +7°C° 0.1 mm 6 mps 754 mmHg 80%
    05:00 +7°C° 0.1 mm 6 mps 754 mmHg 82%
    06:00 +7°C° 0.1 mm 6 mps 754 mmHg 83%
    07:00 +7°C° 0.1 mm 5 mps 754 mmHg 85%
    08:00 +7°C° 0 mm 5 mps 753 mmHg 83%
    09:00 +8°C° 0 mm 5 mps 753 mmHg 82%
    10:00 +8°C° 0 mm 5 mps 753 mmHg 80%
    11:00 +8°C° 0.3 mm 6 mps 752 mmHg 82%
    12:00 +8°C° 0.3 mm 6 mps 752 mmHg 84%
    13:00 +9°C° 0.3 mm 6 mps 751 mmHg 86%
    14:00 +9°C° 0.2 mm 7 mps 751 mmHg 86%
    15:00 +10°C° 0.2 mm 7 mps 750 mmHg 85%
    16:00 +10°C° 0.2 mm 7 mps 750 mmHg 85%
    17:00 +10°C° 0.1 mm 7 mps 749 mmHg 85%
    18:00 +10°C° 0.1 mm 7 mps 749 mmHg 85%
    19:00 +9°C° 0.1 mm 8 mps 748 mmHg 84%
    20:00 +9°C° 0 mm 8 mps 748 mmHg 84%
    21:00 +9°C° 0 mm 8 mps 748 mmHg 84%
    22:00 +7°C° 0 mm 8 mps 747 mmHg 84%
    23:00 +7°C° 0.1 mm 9 mps 747 mmHg 83%

    27 October, Saturday

    Time Temperature Precipitation Wind Pressure Humidity
    00:00 +7°C° 0.1 mm 9 mps 747 mmHg 81%
    01:00 +7°C° 0.1 mm 9 mps 747 mmHg 80%
    02:00 +6°C° 0 mm 9 mps 746 mmHg 79%
    03:00 +6°C° 0 mm 9 mps 746 mmHg 79%
    04:00 +5°C° 0 mm 9 mps 746 mmHg 78%
    05:00 +3°C° 0 mm 10 mps 746 mmHg 79%
    06:00 +3°C° 0 mm 10 mps 745 mmHg 79%
    07:00 +3°C° 0 mm 11 mps 745 mmHg 79%
    08:00 +3°C° 0 mm 11 mps 746 mmHg 74%
    09:00 +4°C° 0 mm 12 mps 746 mmHg 70%
    10:00 +5°C° 0 mm 12 mps 746 mmHg 65%
    11:00 +5°C° 0 mm 12 mps 746 mmHg 61%
    12:00 +7°C° 0 mm 12 mps 747 mmHg 58%
    13:00 +8°C° 0 mm 12 mps 747 mmHg 55%
    14:00 +7°C° 0.1 mm 11 mps 747 mmHg 55%
    15:00 +7°C° 0.1 mm 11 mps 747 mmHg 56%
    16:00 +7°C° 0.1 mm 10 mps 747 mmHg 57%
    17:00 +6°C° 0.2 mm 10 mps 747 mmHg 59%
    18:00 +6°C° 0.2 mm 9 mps 748 mmHg 62%
    19:00 +5°C° 0.2 mm 9 mps 748 mmHg 64%
    20:00 +5°C° 0.1 mm 9 mps 748 mmHg 67%
    21:00 +5°C° 0.1 mm 8 mps 748 mmHg 70%
    22:00 +4°C° 0.1 mm 8 mps 749 mmHg 72%
    23:00 +4°C° 0 mm 7 mps 749 mmHg 74%

    28 October, Sunday

    Time Temperature Precipitation Wind Pressure Humidity
    00:00 +4°C° 0 mm 7 mps 749 mmHg 76%
    01:00 +4°C° 0 mm 6 mps 749 mmHg 77%
    02:00 +3°C° 0 mm 6 mps 749 mmHg 79%
    03:00 +3°C° 0 mm 5 mps 749 mmHg 81%
    04:00 +3°C° 0 mm 5 mps 749 mmHg 83%
    05:00 +3°C° 0.2 mm 4 mps 749 mmHg 85%
    06:00 +3°C° 0.2 mm 4 mps 749 mmHg 86%
    07:00 +3°C° 0.2 mm 3 mps 750 mmHg 88%
    08:00 +3°C° 0.2 mm 4 mps 750 mmHg 84%
    09:00 +4°C° 0.2 mm 4 mps 750 mmHg 81%
    10:00 +5°C° 0.2 mm 4 mps 751 mmHg 78%
    11:00 +5°C° 0.3 mm 5 mps 751 mmHg 75%
    12:00 +6°C° 0.3 mm 5 mps 751 mmHg 72%
    13:00 +6°C° 0.3 mm 5 mps 751 mmHg 69%
    14:00 +6°C° 0.5 mm 5 mps 752 mmHg 71%
    15:00 +5°C° 0.5 mm 6 mps 752 mmHg 73%
    16:00 +5°C° 0.5 mm 6 mps 752 mmHg 74%
    17:00 +5°C° 0.6 mm 6 mps 753 mmHg 77%
    18:00 +5°C° 0.6 mm 7 mps 753 mmHg 79%
    19:00 +4°C° 0.6 mm 7 mps 754 mmHg 81%
    20:00 +4°C° 0.6 mm 7 mps 754 mmHg 81%
    21:00 +4°C° 0.6 mm 7 mps 755 mmHg 82%
    22:00 +4°C° 0.6 mm 6 mps 755 mmHg 82%
    23:00 +4°C° 0.5 mm 6 mps 755 mmHg 83%

    29 October, Monday

    Time Temperature Precipitation Wind Pressure Humidity
    00:00 +5°C° 0.5 mm 5 mps 756 mmHg 85%
    01:00 +5°C° 0.5 mm 5 mps 756 mmHg 86%
    02:00 +4°C° 0.8 mm 4 mps 757 mmHg 87%
    03:00 +4°C° 0.8 mm 4 mps 757 mmHg 88%
    04:00 +4°C° 0.8 mm 3 mps 757 mmHg 88%
    05:00 +4°C° 1 mm 3 mps 758 mmHg 88%
    06:00 +3°C° 1 mm 3 mps 758 mmHg 89%
    07:00 +3°C° 1 mm 3 mps 758 mmHg 89%
    08:00 +3°C° 0.4 mm 3 mps 759 mmHg 86%
    09:00 +4°C° 0.4 mm 3 mps 759 mmHg 84%
    10:00 +4°C° 0.4 mm 3 mps 760 mmHg 81%
    11:00 +5°C° 0.2 mm 3 mps 760 mmHg 78%
    12:00 +5°C° 0.2 mm 3 mps 760 mmHg 74%
    13:00 +7°C° 0.2 mm 3 mps 760 mmHg 71%
    14:00 +5°C° 0.1 mm 3 mps 760 mmHg 72%
    15:00 +5°C° 0.1 mm 3 mps 760 mmHg 72%
    16:00 +4°C° 0.1 mm 3 mps 760 mmHg 73%
    17:00 +4°C° 0 mm 3 mps 760 mmHg 74%
    18:00 +4°C° 0 mm 2 mps 760 mmHg 75%
    19:00 +4°C° 0 mm 2 mps 760 mmHg 76%
    20:00 +3°C° 0 mm 2 mps 760 mmHg 76%
    21:00 +3°C° 0 mm 2 mps 760 mmHg 76%
    22:00 +3°C° 0 mm 2 mps 760 mmHg 76%
    23:00 +3°C° 0 mm 2 mps 760 mmHg 77%
    Show more